1515675601.02,50032,11.38,72972.8,-5.65,-21.53,-23.95,0,*5A
1515675602.3,50033,11.38,72976.3,-5.65,-21.67,-23.95,0,*5C
1515675603.53,50034,11.38,72976.8,-5.67,-21.67,-24.05,0,*57
1515675604.79,50035,11.38,72976.3,-5.67,-21.53,-23.95,0,*5F
1515675606.01,50036,11.38,72978.3,-5.67,-21.57,-24.05,0,*56
1515675607.24,50037,11.38,72978.5,-5.67,-21.57,-24.05,0,*57
1515675608.52,50038,11.38,72976.3,-5.65,-21.53,-23.95,0,*50
1515675609.77,50039,11.44,72982.0,-5.65,-21.43,-23.95,0,*50
1515675611.03,50040,11.38,72976.5,-5.65,-21.53,-24.05,0,*51
1515675612.27,50041,11.38,72976.0,-5.67,-21.53,-24.05,0,*52
1515675613.52,50042,11.38,72978.5,-5.67,-21.53,-23.95,0,*5F
1515675614.78,50043,11.38,72976.3,-5.67,-21.53,-23.95,0,*5E
1515675615.98,50044,11.38,72980.3,-5.67,-21.43,-24.05,0,*56
1515675617.24,50045,11.38,72978.3,-5.65,-21.53,-24.05,0,*54
1515675618.47,50046,11.38,72978.8,-5.67,-21.57,-24.05,0,*51
1515675619.7,50047,11.38,72982.0,-5.67,-21.57,-24.05,0,*50
1515675620.93,50048,11.38,72978.3,-5.67,-21.53,-24.05,0,*5B
1515675622.19,50049,11.38,72978.8,-5.65,-21.57,-24.05,0,*5C
1515675623.42,50050,11.38,72978.3,-5.67,-21.57,-24.05,0,*56
1515675624.67,50051,11.38,72976.5,-5.65,-21.57,-24.05,0,*55
1515675625.93,50052,11.38,72978.8,-5.65,-21.67,-24.05,0,*55
1515675627.16,50053,11.38,72978.0,-5.65,-21.43,-24.05,0,*52
1515675628.42,50054,11.38,72980.0,-5.65,-21.53,-24.05,0,*54
1515675629.68,50055,11.38,72980.3,-5.65,-21.53,-24.05,0,*55
1515675630.94,50056,11.38,72982.8,-5.65,-21.57,-24.05,0,*52
1515675632.19,50057,11.38,72978.3,-5.65,-21.57,-24.05,0,*53
1515675633.45,50058,11.38,72978.5,-5.65,-21.67,-24.05,0,*5F
1515675634.71,50059,11.38,72980.5,-5.65,-21.53,-24.05,0,*59
1515675635.94,50060,11.38,72982.3,-5.67,-21.57,-24.05,0,*55
1515675637.21,50061,11.38,72980.3,-5.65,-21.57,-24.11,0,*53
1515675638.49,50062,11.38,72978.3,-5.65,-21.57,-24.11,0,*50
1515675639.74,50063,11.38,72978.0,-5.67,-21.57,-24.11,0,*53
1515675641.01,50064,11.38,72978.5,-5.65,-21.57,-24.11,0,*56
1515675642.29,50065,11.38,72978.5,-5.65,-21.53,-24.11,0,*53
1515675643.57,50066,11.38,72978.3,-5.65,-21.57,-24.11,0,*54
1515675644.84,50067,11.38,72976.8,-5.65,-21.57,-24.11,0,*55
1515675646.12,50068,11.38,72982.3,-5.65,-21.57,-24.11,0,*5A
1515675647.37,50069,11.38,72978.3,-5.67,-21.67,-24.11,0,*5A
1515675648.65,50070,11.38,72980.3,-5.65,-21.67,-24.11,0,*50
1515675649.93,50071,11.38,72976.3,-5.65,-21.67,-24.11,0,*51
1515675651.2,50072,11.38,72980.8,-5.65,-21.57,-24.11,0,*51
1515675652.49,50073,11.38,72978.3,-5.65,-21.57,-24.21,0,*53
1515675653.78,50074,11.38,72980.0,-5.65,-21.67,-24.21,0,*57
1515675655.07,50075,11.38,72978.5,-5.65,-21.67,-24.21,0,*56
1515675656.32,50076,11.38,72976.0,-5.67,-21.67,-24.11,0,*54
1515675657.59,50077,11.38,72980.3,-5.65,-21.57,-24.11,0,*54
1515675658.87,50078,11.38,72978.0,-5.65,-21.67,-24.11,0,*58
1515675660.15,50079,11.38,72976.0,-5.65,-21.57,-24.11,0,*5A
1515675661.4,50080,11.38,72978.8,-5.67,-21.53,-24.11,0,*5A
1515675662.65,50081,11.38,72976.3,-5.67,-21.67,-24.11,0,*5C
1515675663.91,50082,11.38,72980.5,-5.67,-21.67,-24.11,0,*5F
1515675665.2,50083,11.38,72980.8,-5.65,-21.67,-24.21,0,*5F
1515675666.45,50084,11.38,72980.8,-5.65,-21.73,-24.11,0,*5E
1515675667.7,50085,11.38,72976.0,-5.67,-21.67,-24.11,0,*58
1515675668.98,50086,11.38,72980.8,-5.65,-21.67,-24.11,0,*59
1515675670.26,50087,11.38,72978.0,-5.65,-21.67,-24.11,0,*58
1515675671.55,50088,11.38,72978.8,-5.65,-21.67,-24.21,0,*54
1515675672.82,50089,11.38,72978.8,-5.65,-21.67,-24.11,0,*56
1515675674.1,50090,11.38,72974.5,-5.65,-21.57,-24.11,0,*5D
1515675675.35,50091,11.38,72974.3,-5.67,-21.67,-24.11,0,*5D
1515675676.59,50092,11.38,72978.5,-5.67,-21.73,-24.21,0,*58
1515675677.85,50093,11.38,72978.0,-5.65,-21.73,-24.21,0,*5B
1515675679.11,50094,11.38,72978.0,-5.65,-21.83,-24.31,0,*52
1515675680.36,50095,11.38,72976.5,-5.65,-21.83,-24.31,0,*53
1515675681.65,50096,11.38,72978.0,-5.65,-21.83,-24.21,0,*51
1515675682.88,50097,11.38,72976.0,-5.67,-21.73,-24.11,0,*5E
1515675684.14,50098,11.44,72982.5,-5.65,-21.73,-24.21,0,*50
1515675685.4,50099,11.38,72978.3,-5.67,-21.67,-24.21,0,*56
1515675686.68,50100,11.38,72976.0,-5.65,-21.67,-24.11,0,*56
1515675687.95,50101,11.38,72976.3,-5.65,-21.57,-24.11,0,*54
1515675689.23,50102,11.38,72976.3,-5.65,-21.67,-24.11,0,*54
1515675690.51,50103,11.38,72978.5,-5.65,-21.57,-24.11,0,*56
1515675691.79,50104,11.38,72978.8,-5.65,-21.67,-24.21,0,*51
1515675693.07,50105,11.38,72982.3,-5.65,-21.57,-24.11,0,*50
1515675694.32,50106,11.38,72976.8,-5.67,-21.57,-24.11,0,*51
1515675695.59,50107,11.38,72976.8,-5.65,-21.57,-24.11,0,*52
1515675696.87,50108,11.38,72976.0,-5.65,-21.57,-24.11,0,*5D
1515675698.16,50109,11.38,72978.5,-5.65,-21.53,-24.21,0,*5B
1515675699.44,50110,11.38,72978.8,-5.65,-21.67,-24.11,0,*57
1515675700.7,50111,11.38,72982.0,-5.65,-21.67,-24.31,0,*54
1515675701.93,50112,11.38,72978.8,-5.65,-21.73,-24.31,0,*52
1515675703.19,50113,11.38,72978.8,-5.67,-21.57,-24.21,0,*56
1515675704.47,50114,11.38,72978.5,-5.65,-21.67,-24.11,0,*53
1515675705.76,50115,11.38,72982.3,-5.65,-21.67,-24.21,0,*51
1515675706.99,50116,11.44,72982.8,-5.65,-21.73,-24.31,0,*56
1515675708.24,50117,11.38,72980.3,-5.65,-21.73,-24.11,0,*55
1515675709.5,50118,11.38,72980.0,-5.65,-21.83,-24.31,0,*57
1515675710.79,50119,11.38,72976.0,-5.65,-21.67,-24.21,0,*5D
1515675712.04,50120,11.38,72978.0,-5.65,-21.83,-24.31,0,*5C
1515675713.3,50121,11.38,72980.8,-5.65,-21.83,-24.31,0,*5D
1515675714.59,50122,11.38,72978.8,-5.65,-21.67,-24.21,0,*55
1515675715.85,50123,11.38,72980.3,-5.65,-21.73,-24.21,0,*51
1515675717.11,50124,11.38,72982.0,-5.65,-21.73,-24.21,0,*56
1515675718.35,50125,11.38,72982.8,-5.63,-21.77,-24.25,0,*51
1515675719.58,50126,11.38,72978.8,-5.63,-21.77,-24.25,0,*52
1515675720.85,50127,11.38,72978.3,-5.63,-21.67,-24.25,0,*52
1515675722.11,50128,11.38,72978.8,-5.63,-21.67,-24.25,0,*5D
1515675723.35,50129,11.38,72976.8,-5.63,-21.67,-24.35,0,*5D
1515675724.61,50130,11.38,72980.3,-5.63,-21.67,-24.25,0,*54
1515675725.82,50131,11.38,72980.8,-5.63,-21.77,-24.35,0,*55
1515675727.06,50132,11.38,72982.5,-5.63,-21.77,-24.25,0,*57
1515675728.26,50133,11.38,72982.0,-5.63,-21.77,-24.35,0,*57
1515675729.5,50134,11.38,72978.8,-5.63,-21.67,-24.35,0,*51
1515675730.7,50135,11.38,72980.0,-5.63,-21.77,-24.35,0,*51
1515675731.94,50136,11.38,72982.3,-5.63,-21.83,-24.35,0,*59
1515675733.19,50137,11.38,72984.0,-5.65,-21.87,-24.47,0,*5F
1515675734.48,50138,11.38,72976.8,-5.65,-21.87,-24.41,0,*56
1515675735.74,50139,11.38,72982.3,-5.65,-21.87,-24.47,0,*51
1515675737.0,50140,11.38,72982.3,-5.65,-21.87,-24.57,0,*5E
1515675738.26,50141,11.38,72978.8,-5.65,-21.87,-24.57,0,*5F
1515675739.52,50142,11.44,72982.8,-5.65,-21.87,-24.51,0,*5A
1515675740.77,50143,11.38,72982.0,-5.65,-21.83,-24.47,0,*58
1515675742.03,50144,11.38,72982.5,-5.65,-21.83,-24.47,0,*5F
1515675743.28,50145,11.38,72980.3,-5.65,-21.83,-24.57,0,*5F
1515675744.54,50146,11.38,72982.5,-5.65,-21.73,-24.41,0,*54
1515675745.82,50147,11.38,72980.3,-5.65,-21.83,-24.41,0,*5A
1515675747.05,50148,11.38,72982.0,-5.65,-21.73,-24.31,0,*5D
1515675748.31,50149,11.38,72982.8,-5.67,-21.83,-24.41,0,*56
1515675749.54,50150,11.38,72984.3,-5.65,-21.73,-24.31,0,*54
1515675750.8,50151,11.38,72984.0,-5.65,-21.83,-24.47,0,*5B
1515675752.05,50152,11.38,72980.0,-5.65,-21.83,-24.57,0,*59
1515675753.31,50153,11.38,72982.5,-5.65,-21.87,-24.47,0,*5D
1515675754.57,50154,11.38,72976.0,-5.65,-21.87,-24.57,0,*5B
1515675755.83,50155,11.38,72980.0,-5.65,-21.87,-24.47,0,*5B
1515675757.08,50156,11.38,72984.0,-5.65,-21.83,-24.57,0,*5D
1515675758.34,50157,11.38,72980.0,-5.65,-21.83,-24.47,0,*5D
1515675759.6,50158,11.38,72980.3,-5.65,-21.87,-24.31,0,*57
1515675760.88,50159,11.38,72980.8,-5.65,-21.83,-24.41,0,*55
1515675762.13,50160,11.38,72980.0,-5.65,-21.83,-24.57,0,*58
1515675763.39,50161,11.38,72980.8,-5.65,-21.87,-24.47,0,*5C
1515675764.65,50162,11.38,72976.8,-5.65,-21.97,-24.57,0,*5F
1515675765.9,50163,11.38,72982.3,-5.65,-21.97,-24.61,0,*5B
1515675767.14,50164,11.38,72980.8,-5.63,-21.83,-24.51,0,*5C
1515675768.39,50165,11.38,72978.3,-5.65,-21.87,-24.57,0,*59
1515675769.65,50166,11.38,72982.3,-5.65,-21.87,-24.61,0,*5F
1515675770.89,50167,11.38,72984.3,-5.65,-21.73,-24.47,0,*51
1515675772.12,50168,11.38,72982.5,-5.65,-22.03,-24.61,0,*5E
1515675773.34,50169,11.38,72980.3,-5.65,-22.03,-24.61,0,*5F
1515675774.63,50170,11.44,72982.3,-5.65,-21.87,-24.71,0,*59
1515675775.89,50171,11.38,72978.8,-5.65,-21.97,-24.61,0,*58
1515675777.14,50172,11.38,72978.0,-5.65,-21.97,-24.61,0,*5B
1515675778.34,50173,11.38,72980.8,-5.67,-22.03,-24.61,0,*56
1515675779.55,50174,11.38,72976.5,-5.67,-22.11,-24.77,0,*55
1515675780.81,50175,11.38,72978.3,-5.65,-21.97,-24.61,0,*5C
1515675782.04,50176,11.38,72976.3,-5.67,-21.87,-24.47,0,*58
1515675783.32,50177,11.38,72980.0,-5.65,-21.97,-24.71,0,*5F
1515675784.55,50178,11.38,72978.8,-5.65,-22.03,-24.77,0,*58
1515675785.81,50179,11.38,72978.3,-5.65,-21.97,-24.61,0,*50
1515675787.06,50180,11.38,72978.0,-5.65,-21.97,-24.61,0,*56
1515675788.29,50181,11.38,72976.8,-5.65,-22.03,-24.61,0,*59
1515675789.52,50182,11.38,72978.3,-5.67,-21.97,-24.61,0,*56
1515675790.77,50183,11.38,72980.0,-5.67,-21.97,-24.71,0,*56
1515675792.01,50184,11.38,72982.5,-5.67,-22.11,-24.71,0,*5C
1515675793.26,50185,11.38,72976.3,-5.65,-21.97,-24.61,0,*53
1515675794.52,50186,11.38,72978.5,-5.65,-21.87,-24.57,0,*54
1515675795.78,50187,11.38,72978.0,-5.65,-21.87,-24.61,0,*50
1515675797.02,50188,11.38,72976.5,-5.67,-21.87,-24.61,0,*5D
1515675798.28,50189,11.44,72980.0,-5.65,-21.87,-24.61,0,*5E
1515675799.53,50190,11.38,72976.0,-5.67,-21.97,-24.71,0,*54
1515675800.79,50191,11.38,72978.0,-5.67,-21.97,-24.71,0,*55
1515675802.07,50192,11.38,72978.3,-5.65,-21.97,-24.71,0,*54
1515675803.3,50193,11.38,72974.3,-5.67,-21.97,-24.61,0,*56
1515675804.56,50194,11.38,72976.8,-5.67,-21.97,-24.71,0,*50
1515675805.79,50195,11.38,72974.3,-5.65,-22.03,-24.61,0,*5C
1515675807.04,50196,11.38,72982.3,-5.65,-21.97,-24.61,0,*51
1515675808.3,50197,11.38,72976.3,-5.65,-21.97,-24.77,0,*57
1515675809.58,50198,11.38,72980.0,-5.65,-21.97,-24.71,0,*5E
1515675810.81,50199,11.38,72976.5,-5.67,-22.03,-24.71,0,*53
1515675812.04,50200,11.38,72976.5,-5.65,-22.03,-24.61,0,*53
1515675813.29,50201,11.38,72978.8,-5.65,-22.03,-24.71,0,*53
1515675814.53,50202,11.38,72980.0,-5.67,-21.87,-24.61,0,*5C
1515675815.78,50203,11.38,72980.8,-5.67,-21.97,-24.71,0,*5D
1515675817.01,50204,11.38,72980.8,-5.67,-21.97,-24.61,0,*5B
1515675818.27,50205,11.38,72976.0,-5.65,-21.97,-24.61,0,*58
1515675819.52,50206,11.38,72980.0,-5.67,-21.97,-24.71,0,*58
1515675820.78,50207,11.38,72980.8,-5.65,-21.97,-24.61,0,*5A
1515675822.01,50208,11.38,72984.0,-5.67,-21.87,-24.61,0,*56
1515675823.25,50209,11.38,72984.5,-5.67,-21.87,-24.61,0,*57
1515675824.48,50210,11.38,72976.5,-5.67,-21.87,-24.61,0,*5F
1515675825.74,50211,11.38,72982.3,-5.65,-22.03,-24.71,0,*52
1515675826.97,50212,11.38,72984.5,-5.67,-21.97,-24.61,0,*5C
1515675828.23,50213,11.38,72980.3,-5.65,-22.03,-24.71,0,*50
1515675829.43,50214,11.38,72982.8,-5.67,-22.11,-24.77,0,*50
1515675830.66,50215,11.38,72984.0,-5.65,-22.03,-24.77,0,*50
1515675831.86,50216,11.38,72980.0,-5.67,-22.03,-24.77,0,*51
1515675833.09,50217,11.38,72982.3,-5.67,-22.11,-24.87,0,*5C
1515675834.32,50218,11.38,72984.8,-5.65,-22.11,-24.77,0,*5E
1515675835.58,50219,11.38,72982.8,-5.65,-22.11,-24.87,0,*50
1515675836.83,50220,11.38,72986.5,-5.65,-22.03,-24.87,0,*59
1515675838.09,50221,11.38,72986.5,-5.65,-22.11,-24.87,0,*5B
1515675839.32,50222,11.38,72984.0,-5.67,-22.11,-24.87,0,*5A
1515675840.52,50223,11.38,72980.5,-5.67,-22.11,-24.77,0,*54
1515675841.75,50224,11.38,72980.8,-5.67,-22.11,-24.87,0,*5C
1515675842.99,50225,11.38,72986.3,-5.67,-22.17,-24.93,0,*5E
1515675844.22,50226,11.38,72980.8,-5.67,-22.17,-24.93,0,*5D
1515675845.45,50227,11.44,72986.5,-5.67,-22.17,-24.93,0,*5C
1515675846.74,50228,11.38,72980.8,-5.69,-22.17,-24.87,0,*58
1515675847.97,50229,11.38,72980.8,-5.67,-22.21,-24.93,0,*57
1515675849.23,50230,11.38,72982.0,-5.65,-22.11,-24.87,0,*5B
1515675850.46,50231,11.38,72980.5,-5.67,-22.17,-24.93,0,*5B
1515675851.69,50232,11.38,72980.5,-5.67,-22.11,-24.87,0,*5B
1515675852.92,50233,11.38,72980.3,-5.67,-22.11,-24.87,0,*5A
1515675854.15,50234,11.38,72982.5,-5.67,-22.17,-24.93,0,*5E
1515675855.38,50235,11.38,72980.0,-5.69,-22.03,-24.93,0,*54
1515675856.64,50236,11.38,72980.5,-5.69,-22.17,-24.93,0,*52
1515675857.9,50237,11.38,72982.5,-5.67,-22.17,-24.87,0,*58
1515675859.16,50238,11.38,72980.0,-5.67,-22.21,-24.87,0,*52
1515675860.38,50239,11.38,72986.5,-5.67,-22.21,-24.93,0,*56
1515675861.67,50240,11.38,72980.3,-5.69,-22.17,-24.87,0,*56
1515675862.93,50241,11.38,72976.8,-5.69,-22.17,-24.93,0,*52
1515675864.16,50242,11.38,72980.8,-5.67,-22.21,-24.93,0,*5A
1515675865.42,50243,11.38,72982.8,-5.67,-22.17,-24.87,0,*5B
1515675866.68,50244,11.38,72982.5,-5.69,-22.17,-24.93,0,*57
1515675867.94,50245,11.38,72982.8,-5.69,-22.21,-24.93,0,*53
1515675869.22,50246,11.38,72976.8,-5.69,-22.31,-25.03,0,*59
1515675870.51,50247,11.38,72982.0,-5.69,-22.21,-25.03,0,*59
1515675871.79,50248,11.38,72982.0,-5.69,-22.17,-25.03,0,*53
1515675873.05,50249,11.44,72986.3,-5.67,-22.21,-25.03,0,*59
1515675874.28,50250,11.38,72982.0,-5.67,-22.31,-24.93,0,*58
1515675875.51,50251,11.38,72984.0,-5.67,-22.21,-24.93,0,*58
1515675876.77,50252,11.38,72982.0,-5.69,-22.17,-24.93,0,*50
1515675878.05,50253,11.38,72984.8,-5.69,-22.21,-25.03,0,*5C
1515675879.31,50254,11.38,72982.0,-5.69,-22.21,-24.93,0,*53
1515675880.53,50255,11.38,72982.8,-5.71,-22.27,-25.09,0,*5F
1515675881.81,50256,11.38,72982.5,-5.69,-22.21,-25.03,0,*59
1515675883.02,50257,11.38,72980.3,-5.71,-22.27,-24.97,0,*5B
1515675884.23,50258,11.38,72980.0,-5.71,-22.27,-25.09,0,*52
1515675885.45,50259,11.38,72980.0,-5.71,-22.37,-24.97,0,*54
1515675886.7,50260,11.38,72984.0,-5.69,-22.21,-24.93,0,*54
1515675887.96,50261,11.38,72984.3,-5.69,-22.31,-24.97,0,*50
1515675889.22,50262,11.38,72982.0,-5.69,-22.31,-25.09,0,*55
1515675890.43,50263,11.38,72980.5,-5.71,-22.41,-25.13,0,*51
1515675891.69,50264,11.38,72984.8,-5.69,-22.17,-24.93,0,*55
1515675892.98,50265,11.38,72980.5,-5.69,-22.17,-25.03,0,*5C
1515675894.24,50266,11.38,72982.5,-5.69,-22.21,-24.93,0,*52
1515675895.47,50267,11.38,72984.3,-5.69,-22.37,-25.09,0,*56
1515675896.74,50268,11.38,72980.5,-5.69,-22.31,-25.09,0,*5F
1515675898.02,50269,11.38,72980.0,-5.69,-22.17,-25.03,0,*50
1515675899.24,50270,11.38,72982.8,-5.71,-22.27,-25.09,0,*58
1515675900.46,50271,11.38,72986.8,-5.71,-22.37,-25.09,0,*58
1515675901.67,50272,11.38,72982.0,-5.71,-22.37,-25.13,0,*50
1515675902.89,50273,11.38,72980.8,-5.71,-22.37,-25.09,0,*5A
1515675904.1,50274,11.44,72982.5,-5.71,-22.27,-25.13,0,*57
1515675905.32,50275,11.38,72982.0,-5.71,-22.41,-25.13,0,*56
1515675906.6,50276,11.38,72980.8,-5.69,-22.21,-25.03,0,*5B
1515675907.82,50277,11.38,72978.0,-5.71,-22.27,-25.09,0,*5F
1515675909.03,50278,11.38,72978.8,-5.71,-22.37,-25.13,0,*5A
1515675910.29,50279,11.38,72982.0,-5.69,-22.31,-25.09,0,*5F
1515675911.55,50280,11.44,72984.3,-5.69,-22.21,-25.13,0,*53
1515675912.77,50281,11.38,72978.5,-5.71,-22.27,-25.13,0,*5D
1515675913.98,50282,11.44,72984.8,-5.71,-22.37,-25.13,0,*5F
1515675915.19,50283,11.38,72978.8,-5.71,-22.41,-25.23,0,*5C
1515675916.4,50284,11.38,72980.0,-5.71,-22.37,-25.23,0,*5A
1515675917.62,50285,11.38,72980.0,-5.71,-22.53,-25.23,0,*59
1515675918.83,50286,11.38,72984.3,-5.71,-22.37,-25.23,0,*58
1515675920.05,50287,11.38,72982.5,-5.71,-22.41,-25.13,0,*5B
1515675921.26,50288,11.44,72984.5,-5.71,-22.37,-25.13,0,*55
1515675922.47,50289,11.44,72986.3,-5.71,-22.41,-25.13,0,*55
1515675923.71,50290,11.38,72986.0,-5.71,-22.57,-25.29,0,*53
1515675924.93,50291,11.38,72980.8,-5.71,-22.41,-25.13,0,*5C
1515675926.14,50292,11.44,72984.5,-5.71,-22.41,-25.13,0,*5F
1515675927.35,50293,11.38,72980.8,-5.71,-22.41,-25.13,0,*5E
1515675928.57,50294,11.44,72980.5,-5.71,-22.53,-25.13,0,*5A
1515675929.78,50295,11.38,72980.3,-5.71,-22.41,-25.23,0,*5B
1515675931.0,50296,11.38,72980.5,-5.71,-22.57,-25.23,0,*5F
1515675932.21,50297,11.44,72986.3,-5.71,-22.53,-25.35,0,*5D
1515675933.43,50298,11.38,72980.0,-5.71,-22.57,-25.35,0,*56
1515675934.66,50299,11.44,72984.3,-5.73,-22.63,-25.35,0,*52
1515675935.92,50300,11.44,72982.8,-5.73,-22.57,-25.29,0,*59
1515675937.16,50301,11.38,72980.3,-5.73,-22.57,-25.35,0,*55
1515675938.38,50302,11.38,72980.3,-5.73,-22.63,-25.35,0,*51
1515675939.6,50303,11.38,72980.3,-5.75,-22.57,-25.39,0,*5D
1515675940.81,50304,11.44,72984.8,-5.75,-22.63,-25.35,0,*51
1515675942.03,50305,11.38,72984.0,-5.73,-22.63,-25.35,0,*56
1515675943.3,50306,11.38,72980.8,-5.73,-22.77,-25.49,0,*5B
1515675944.54,50307,11.38,72980.8,-5.75,-22.73,-25.35,0,*53
1515675945.77,50308,11.38,72986.0,-5.75,-22.77,-25.35,0,*58
1515675946.98,50309,11.38,72980.5,-5.75,-22.63,-25.39,0,*50
1515675948.19,50310,11.44,72980.8,-5.75,-22.63,-25.39,0,*58
1515675949.42,50311,11.44,72986.8,-5.75,-22.73,-25.35,0,*54
1515675950.66,50312,11.38,72982.0,-5.75,-22.57,-25.29,0,*5C
1515675951.9,50313,11.38,72982.8,-5.75,-22.77,-25.39,0,*5E
1515675953.14,50314,11.38,72984.5,-5.73,-22.87,-25.49,0,*57
1515675954.38,50315,11.38,72982.8,-5.77,-22.83,-25.61,0,*5C
1515675955.63,50316,11.38,72982.8,-5.77,-22.83,-25.45,0,*59
1515675956.89,50317,11.44,72986.0,-5.77,-22.83,-25.45,0,*58
1515675958.12,50318,11.38,72984.3,-5.79,-22.83,-25.45,0,*59
1515675959.41,50319,11.38,72980.8,-5.77,-22.77,-25.45,0,*5D
1515675960.69,50320,11.44,72986.3,-5.77,-22.77,-25.45,0,*57
1515675961.93,50321,11.38,72984.0,-5.79,-22.83,-25.55,0,*52
1515675963.19,50322,11.38,72980.0,-5.77,-22.83,-25.45,0,*5E
1515675964.45,50323,11.38,72980.0,-5.79,-22.77,-25.45,0,*5A
1515675965.67,50324,11.38,72984.3,-5.79,-22.93,-25.61,0,*51
1515675966.94,50325,11.38,72980.3,-5.79,-22.77,-25.55,0,*5D
1515675968.18,50326,11.44,72986.5,-5.79,-22.93,-25.55,0,*54
1515675969.45,50327,11.38,72982.8,-5.79,-22.77,-25.45,0,*5E
1515675970.69,50328,11.38,72982.8,-5.79,-22.83,-25.55,0,*5B
1515675971.9,50329,11.38,72982.8,-5.79,-22.83,-25.61,0,*5D
1515675973.14,50330,11.44,72984.8,-5.79,-22.83,-25.55,0,*52
1515675974.41,50331,11.38,72982.0,-5.79,-22.77,-25.55,0,*58
1515675975.64,50332,11.38,72984.5,-5.83,-22.83,-25.45,0,*54
1515675976.85,50333,11.38,72984.8,-5.83,-22.87,-25.61,0,*57
1515675978.06,50334,11.44,72984.8,-5.83,-22.83,-25.61,0,*54
1515675979.27,50335,11.44,72984.5,-5.83,-22.83,-25.49,0,*5F
1515675980.49,50336,11.38,72980.8,-5.83,-22.83,-25.61,0,*56
1515675981.72,50337,11.44,72984.3,-5.85,-22.97,-25.65,0,*50
1515675982.93,50338,11.44,72986.5,-5.83,-22.83,-25.61,0,*58
1515675984.2,50339,11.44,72986.8,-5.85,-23.03,-25.65,0,*52
1515675985.43,50340,11.38,72982.0,-5.83,-23.03,-25.65,0,*5A
1515675986.65,50341,11.38,72984.3,-5.83,-22.97,-25.61,0,*53
1515675987.86,50342,11.38,72984.0,-5.83,-22.87,-25.49,0,*5B
1515675989.07,50343,11.38,72982.0,-5.83,-22.83,-25.49,0,*5E
1515675990.28,50344,11.44,72984.5,-5.83,-22.87,-25.65,0,*53
1515675991.49,50345,11.38,72980.3,-5.83,-22.87,-25.61,0,*56
1515675992.73,50346,11.38,72982.0,-5.85,-22.97,-25.65,0,*56
1515675993.96,50347,11.38,72984.8,-5.85,-22.97,-25.65,0,*57
1515675995.23,50348,11.38,72976.3,-5.83,-23.03,-25.75,0,*53
1515675996.47,50349,11.44,72984.0,-5.83,-22.97,-25.75,0,*5E
1515675997.7,50350,11.38,72982.5,-5.85,-22.87,-25.65,0,*50
1515675998.93,50351,11.38,72980.3,-5.85,-22.87,-25.61,0,*55
1515676000.17,50352,11.38,72982.8,-5.85,-22.97,-25.65,0,*53
1515676001.45,50353,11.38,72980.5,-5.85,-23.03,-25.75,0,*5F
1515676002.74,50354,11.38,72982.5,-5.85,-23.03,-25.75,0,*58
1515676004.0,50355,11.38,72982.3,-5.85,-22.97,-25.75,0,*55
1515676005.24,50356,11.44,72984.3,-5.87,-23.09,-25.81,0,*59
1515676006.46,50357,11.44,72984.3,-5.87,-22.93,-25.65,0,*50
1515676007.7,50358,11.38,72978.5,-5.87,-22.93,-25.55,0,*5C
1515676008.92,50359,11.38,72982.8,-5.87,-22.87,-25.61,0,*5F
1515676010.15,50360,11.38,72980.8,-5.85,-22.87,-25.61,0,*57
1515676011.37,50361,11.38,72982.3,-5.87,-23.09,-25.65,0,*57
1515676012.58,50362,11.38,72984.5,-5.87,-22.87,-25.65,0,*53
1515676013.79,50363,11.44,72984.5,-5.87,-22.93,-25.65,0,*57
1515676015.04,50364,11.38,72982.3,-5.87,-22.77,-25.65,0,*5A
1515676016.25,50365,11.38,72980.3,-5.87,-22.87,-25.65,0,*54
1515676017.49,50366,11.38,72980.5,-5.87,-22.77,-25.65,0,*58
1515676018.75,50367,11.44,72986.3,-5.89,-22.87,-25.55,0,*5B
1515676019.97,50368,11.38,72980.8,-5.87,-22.93,-25.65,0,*5C
1515676021.21,50369,11.38,72980.5,-5.89,-22.93,-25.65,0,*53
1515676022.42,50370,11.38,72982.5,-5.87,-22.87,-25.49,0,*5E
1515676023.64,50371,11.38,72982.3,-5.87,-22.93,-25.65,0,*54
1515676024.91,50372,11.44,72984.8,-5.87,-23.03,-25.71,0,*5A
1515676026.17,50373,11.38,72980.8,-5.89,-22.93,-25.71,0,*5D
1515676027.41,50374,11.38,72980.5,-5.87,-22.87,-25.55,0,*57
1515676028.7,50375,11.38,72980.5,-5.89,-22.77,-25.55,0,*57
1515676029.97,50376,11.44,72980.8,-5.89,-22.77,-25.49,0,*59
1515676031.24,50377,11.44,72984.5,-5.89,-22.77,-25.49,0,*58
1515676032.51,50378,11.44,72982.8,-5.87,-22.77,-25.55,0,*54
1515676033.75,50379,11.38,72980.0,-5.87,-22.73,-25.49,0,*5C
1515676035.04,50380,11.44,72982.5,-5.89,-22.77,-25.55,0,*5D
1515676036.31,50381,11.38,72980.8,-5.89,-22.77,-25.65,0,*5F
1515676037.53,50382,11.38,72980.3,-5.87,-22.93,-25.65,0,*58
1515676038.76,50383,11.38,72980.5,-5.89,-22.87,-25.65,0,*52
1515676040.05,50384,11.44,72984.3,-5.89,-22.77,-25.55,0,*59
1515676041.35,50385,11.44,72984.5,-5.89,-22.77,-25.55,0,*58
1515676042.64,50386,11.38,72982.0,-5.89,-22.77,-25.55,0,*5B
1515676043.89,50387,11.44,72980.0,-5.87,-22.77,-25.49,0,*59
1515676045.12,50388,11.44,72982.5,-5.87,-22.73,-25.49,0,*52
1515676046.39,50389,11.38,72980.0,-5.89,-22.77,-25.49,0,*59
1515676047.63,50390,11.44,72986.0,-5.87,-22.73,-25.49,0,*5B
1515676048.9,50391,11.38,72980.3,-5.89,-22.77,-25.49,0,*50
1515676050.19,50392,11.44,72982.3,-5.89,-22.77,-25.55,0,*5E
1515676051.43,50393,11.44,72984.8,-5.87,-22.73,-25.49,0,*58
1515676052.67,50394,11.38,72980.8,-5.89,-22.87,-25.49,0,*5A
1515676053.93,50395,11.38,72980.8,-5.89,-22.87,-25.55,0,*56
1515676055.22,50396,11.44,72982.5,-5.89,-22.77,-25.55,0,*5A
1515676056.48,50397,11.44,72982.8,-5.89,-22.87,-25.55,0,*54
1515676057.75,50398,11.38,72982.0,-5.87,-22.77,-25.55,0,*5A
1515676059.0,50399,11.44,72984.3,-5.87,-22.77,-25.49,0,*56
1515676060.26,50400,11.44,72984.8,-5.89,-22.73,-25.49,0,*5B
1515676061.53,50401,11.44,72984.3,-5.89,-22.77,-25.49,0,*5E
1515676062.78,50402,11.44,72986.0,-5.87,-22.77,-25.49,0,*53
1515676064.04,50403,11.44,72984.3,-5.89,-22.77,-25.49,0,*5C
1515676065.33,50404,11.38,72980.3,-5.89,-22.73,-25.55,0,*52
1515676066.59,50405,11.44,72986.3,-5.89,-22.87,-25.55,0,*58
1515676067.88,50406,11.44,72984.5,-5.89,-22.73,-25.55,0,*50
1515676069.14,50407,11.44,72984.5,-5.89,-22.87,-25.71,0,*5C
1515676070.37,50408,11.38,72986.3,-5.89,-22.87,-25.65,0,*56
1515676071.61,50409,11.44,72984.8,-5.89,-22.93,-25.65,0,*52
1515676072.88,50410,11.44,72984.5,-5.89,-22.93,-25.71,0,*5F
1515676074.14,50411,11.38,72984.5,-5.89,-23.09,-25.81,0,*53
1515676075.38,50412,11.38,72984.8,-5.91,-22.93,-25.75,0,*50
1515676076.6,50413,11.38,72984.3,-5.91,-22.97,-25.87,0,*58
1515676077.84,50414,11.44,72984.3,-5.91,-22.93,-25.71,0,*52
1515676079.06,50415,11.44,72986.0,-5.91,-22.93,-25.61,0,*52
1515676080.3,50416,11.38,72982.0,-5.91,-22.93,-25.71,0,*50
1515676081.54,50417,11.38,72984.3,-5.93,-22.87,-25.65,0,*53
1515676082.83,50418,11.38,72980.8,-5.93,-22.73,-25.55,0,*54
1515676084.07,50419,11.44,72984.5,-5.91,-22.83,-25.55,0,*58
1515676085.32,50420,11.38,72978.5,-5.91,-22.77,-25.61,0,*5E
1515676086.59,50421,11.44,72980.8,-5.91,-22.77,-25.55,0,*58
1515676087.86,50422,11.44,72982.8,-5.91,-22.77,-25.55,0,*5B
1515676089.13,50423,11.38,72980.0,-5.91,-22.77,-25.55,0,*5A
1515676090.39,50424,11.44,72980.5,-5.89,-22.77,-25.49,0,*59
1515676091.63,50425,11.38,72980.3,-5.89,-22.63,-25.49,0,*5D
1515676092.92,50426,11.44,72980.8,-5.89,-22.73,-25.55,0,*52
1515676094.15,50427,11.38,72980.3,-5.89,-22.63,-25.49,0,*5F
1515676095.39,50428,11.44,72980.3,-5.89,-22.63,-25.49,0,*50
1515676096.63,50429,11.44,72982.3,-5.89,-22.63,-25.49,0,*51
1515676097.86,50430,11.44,72980.3,-5.89,-22.63,-25.49,0,*59
1515676099.12,50431,11.44,72982.8,-5.89,-22.57,-25.45,0,*53